User: anonymous   Login
Location: Eastview
(35.0756°N, 88.5453°W)
Time: 15:30:59
(UTC+00:00)
Language:

GEOS 3 Rocket - Orbit

View from above orbital plane
View from above orbital plane
View from above satellite
View from above satellite

Ground track
Ground track

The orbit data is extracted from the following two-line orbital elements,

1  7735U 75027B   20025.05958237 -.00000141  00000-0  16109-4 0  9999
2  7735 114.9730 306.5004 0037927 350.1500   9.8835 14.24598360325813
Epoch (UTC): 25 January 2020 01:25:47
Eccentricity: 0.0037927
inclination: 114.9730°
perigee height: 782 km
apogee height: 837 km
right ascension of ascending node: 306.5004°
argument of perigee: 350.1500°
revolutions per day: 14.24598360
mean anomaly at epoch: 9.8835°
orbit number at epoch: 32581

The dashed part of the orbit path shows where the satellite is in the earth's shadow,  

DLR